Flag for U.S.A. Weather past 2 weeks in Toledo, Ohio, U.S.A.

Now
25 °F

Sunny.


Feels Like: 13 °F
Forecast: 2 / 25 °F
Wind: 13 mph from Southwest

Location: Toledo Suburban Airport

Current Time: Mar 6, 2015 at 3:54:36 PM

Latest Report: Mar 6, 2015 at 3:34 PM


Visibility: 10 mi

Pressure: 30.34 "Hg

Humidity: 50%

Dew point: 9 °F

Location of ToledoLocation

Historic Weather in Toledo — Graph

°F

Toledo temperature yesterday

Maximum temperature yesterday: 21 °F (at 3:34 PM)
Minimum temperature yesterday: 5 °F (at 11:15 PM)
Average temperature yesterday: 16 °F

Past Weeks' High & Low Weather Summary

 TemperatureHumidityPressure
High37 °F (Mar 3, 5:15 PM)93% (Feb 22, 4:34 AM)30.77 "Hg (Feb 22, 4:34 AM)
Low-13 °F (Feb 20, 6:34 AM)35% (Feb 27, 3:15 PM)29.61 "Hg (Mar 3, 3:55 PM)
Average17 °F66%30.26 "Hg
* Reported Feb 19 2:15 PM — Mar 6 2:54 PM, Toledo, Weather by CustomWeather, © 2015

Note: Actual official high and low records may vary slightly from our data, if they occured in-between our weather recording intervals... More about our weather records

Advertising

Toledo weather history for previous 24 hours

 ConditionsComfort  
Time TempWeatherWind HumidityBarometerVisibility
2:54 PM
Fri, Mar 6
25 °FSunny.13 mph50%30.35 "Hg10 mi
2:34 PM25 °FSunny.12 mph46%30.37 "Hg10 mi
2:15 PM23 °FSunny.8 mph46%30.38 "Hg10 mi
1:54 PM23 °FSunny.10 mph46%30.40 "Hg10 mi
1:34 PM23 °FSunny.10 mph46%30.41 "Hg10 mi
1:15 PM23 °FSunny.9 mph46%30.42 "Hg10 mi
12:54 PM23 °FSunny.14 mph46%30.44 "Hg10 mi
12:34 PM23 °FSunny.15 mph42%30.45 "Hg10 mi
12:15 PM21 °FSunny.9 mph45%30.45 "Hg10 mi
11:55 AM21 °FSunny.15 mph49%30.46 "Hg10 mi
11:34 AM21 °FSunny.12 mph49%30.47 "Hg10 mi
11:15 AM21 °FSunny.9 mph49%30.47 "Hg10 mi
10:55 AM19 °FSunny.13 mph58%30.48 "Hg10 mi
10:34 AM19 °FSunny.10 mph63%30.49 "Hg10 mi
10:15 AM18 °FSunny.9 mph62%30.49 "Hg10 mi
9:54 AM18 °FSunny.8 mph68%30.50 "Hg10 mi
9:34 AM18 °FSunny.6 mph68%30.50 "Hg10 mi
9:15 AM14 °FSunny.6 mph73%30.50 "Hg10 mi
8:54 AM14 °FSunny.6 mph73%30.51 "Hg10 mi
8:34 AM10 °FSunny.3 mph79%30.50 "Hg10 mi
8:15 AM9 °FSunny.No wind78%30.50 "Hg10 mi
7:54 AM3 °FSunny.No wind78%30.50 "Hg10 mi
7:34 AM1 °FSunny.No wind78%30.50 "Hg10 mi
7:15 AM0 °FSunny.No wind78%30.50 "Hg10 mi
6:54 AM1 °FClear.No wind78%30.51 "Hg10 mi
6:34 AM1 °FClear.No wind78%30.51 "Hg10 mi
6:15 AM1 °FClear.No wind78%30.51 "Hg10 mi
5:55 AM1 °FClear.No wind78%30.51 "Hg10 mi
5:34 AM1 °FClear.No wind85%30.51 "Hg10 mi
5:15 AM1 °FClear.No wind78%30.50 "Hg10 mi
4:54 AM1 °FClear.No wind78%30.51 "Hg10 mi
4:34 AM1 °FClear.No wind78%30.51 "Hg10 mi
4:15 AM1 °FClear.No wind78%30.51 "Hg10 mi
3:54 AM1 °FClear.No wind78%30.51 "Hg10 mi
3:34 AM1 °FClear.No wind78%30.51 "Hg10 mi
3:15 AM3 °FClear.No wind72%30.51 "Hg10 mi
2:55 AM3 °FClear.No wind78%30.52 "Hg10 mi
2:34 AM3 °FClear.No wind78%30.52 "Hg10 mi
2:15 AM3 °FClear.No wind72%30.52 "Hg10 mi
1:54 AM5 °FClear.No wind78%30.51 "Hg10 mi
1:34 AM7 °FClear.No wind72%30.51 "Hg10 mi
1:15 AM5 °FClear.No wind85%30.51 "Hg10 mi
12:54 AM3 °FClear.No wind78%30.51 "Hg10 mi
12:34 AM5 °FClear.No wind78%30.51 "Hg10 mi
12:15 AM5 °FClear.No wind78%30.51 "Hg10 mi
11:54 PM
Thu, Mar 5
5 °FClear.No wind72%30.52 "Hg10 mi
11:34 PM5 °FClear.No wind78%30.53 "Hg10 mi
11:15 PM5 °FClear.No wind78%30.52 "Hg10 mi
10:55 PM9 °FClear.No wind72%30.52 "Hg10 mi
10:34 PM9 °FClear.No wind72%30.52 "Hg10 mi
9:55 PM9 °FClear.No wind72%30.51 "Hg10 mi
9:35 PM10 °FClear.No wind67%30.51 "Hg10 mi
9:15 PM10 °FClear.No wind67%30.51 "Hg10 mi
8:55 PM10 °FClear.No wind67%30.51 "Hg10 mi
8:34 PM10 °FClear.No wind67%30.51 "Hg10 mi
8:15 PM12 °FClear.No wind62%30.50 "Hg10 mi
7:54 PM12 °FClear.No wind62%30.49 "Hg10 mi
7:34 PM14 °FClear.No wind62%30.49 "Hg10 mi
7:15 PM14 °FClear.No wind62%30.48 "Hg10 mi
6:54 PM18 °FClear.No wind49%30.48 "Hg10 mi
6:34 PM18 °FClear.No wind49%30.48 "Hg10 mi
6:15 PM19 °FSunny.No wind45%30.47 "Hg10 mi
5:55 PM19 °FScattered clouds.3 mph45%30.46 "Hg10 mi
5:34 PM21 °FScattered clouds.6 mph42%30.45 "Hg10 mi
4:54 PM21 °FSunny.3 mph42%30.43 "Hg10 mi
4:34 PM21 °FSunny.No wind42%30.43 "Hg10 mi
3:54 PM19 °FPartly sunny.7 mph49%30.41 "Hg10 mi
3:34 PM21 °FOvercast.3 mph45%30.41 "Hg10 mi
3:15 PM19 °FPartly sunny.3 mph49%30.41 "Hg10 mi
Weather by CustomWeather, © 2015

See weather overviewHow to use our weather pages